VJT67 LFMD-LFPB

Flight info

Callsign VJT67
Flight time N/A
Altitude FL340
Route OKTE1N OKTET GIPNO LOGNI MOKIP ARFOZ DJL DJL9E
Aircraft CL60/M-SBDE1E2E3FGHIJ1J4J5J7M3RWXYZ/LB1V1D1

Departure

Time 2026-05-04 13:28
Airport Cannes Mandelieu Airport (LFMD)

Arrival

Time N/A
Airport Paris-Le Bourget International Airport (LFPB)
Time Latitude Longitude Altitude Speed Heading
2026-05-04 13:13 43.54783 6.95293 34 ft 0 kts 173°
2026-05-04 13:24 43.54767 6.95294 33 ft 5 kts 184°
2026-05-04 13:25 43.54638 6.95302 31 ft 13 kts 181°
2026-05-04 13:25 43.54533 6.95304 31 ft 17 kts 175°
2026-05-04 13:25 43.54406 6.95324 30 ft 20 kts 174°
2026-05-04 13:25 43.54257 6.95353 29 ft 23 kts 173°
2026-05-04 13:26 43.54094 6.95381 29 ft 13 kts 172°
2026-05-04 13:26 43.54022 6.95324 28 ft 16 kts 260°
2026-05-04 13:26 43.54079 6.95214 29 ft 18 kts 352°
2026-05-04 13:26 43.54143 6.95198 29 ft 0 kts 350°
2026-05-04 13:27 43.54168 6.95193 29 ft 21 kts 352°
2026-05-04 13:27 43.54581 6.95132 32 ft 101 kts 353°
2026-05-04 13:27 43.55516 6.94975 222 ft 161 kts 355°
2026-05-04 13:28 43.56703 6.94559 935 ft 187 kts 343°
2026-05-04 13:28 43.57974 6.94464 1573 ft 210 kts 25°
2026-05-04 13:28 43.58775 6.96221 1894 ft 236 kts 89°
2026-05-04 13:28 43.58378 6.98177 2099 ft 233 kts 118°
2026-05-04 13:29 43.57271 6.99761 1993 ft 216 kts 146°
2026-05-04 13:29 43.55988 7.00553 2767 ft 217 kts 166°
2026-05-04 13:29 43.54379 7.00552 2448 ft 240 kts 188°
2026-05-04 13:29 43.52799 6.99874 2174 ft 236 kts 201°
2026-05-04 13:30 43.51324 6.99011 2083 ft 223 kts 201°
2026-05-04 13:30 43.49942 6.98208 2074 ft 211 kts 201°
2026-05-04 13:30 43.48571 6.97448 2057 ft 211 kts 194°
2026-05-04 13:30 43.47162 6.97526 2039 ft 203 kts 150°
2026-05-04 13:31 43.46208 6.98862 2056 ft 198 kts 118°
2026-05-04 13:31 43.45530 7.00519 2062 ft 201 kts 118°
2026-05-04 13:31 43.44834 7.02173 2054 ft 200 kts 119°
2026-05-04 13:31 43.44112 7.03821 2052 ft 211 kts 120°
2026-05-04 13:32 43.43276 7.05670 2040 ft 243 kts 121°
2026-05-04 13:32 43.42338 7.07652 2041 ft 248 kts 122°
2026-05-04 13:32 43.41357 7.09612 2050 ft 251 kts 124°
2026-05-04 13:32 43.40326 7.11554 2053 ft 253 kts 126°
2026-05-04 13:33 43.39252 7.13464 2051 ft 254 kts 127°
2026-05-04 13:33 43.38122 7.15324 2053 ft 254 kts 129°
2026-05-04 13:33 43.36962 7.17139 2053 ft 254 kts 130°
2026-05-04 13:33 43.35800 7.18955 2046 ft 253 kts 130°
2026-05-04 13:34 43.34633 7.20776 2044 ft 253 kts 130°
2026-05-04 13:34 43.33477 7.22579 2048 ft 252 kts 129°
2026-05-04 13:34 43.32602 7.24615 2040 ft 249 kts 102°
2026-05-04 13:34 43.32742 7.26942 2058 ft 258 kts 65°
2026-05-04 13:35 43.33903 7.28953 2972 ft 283 kts 41°
2026-05-04 13:35 43.37401 7.30993 5680 ft 297 kts
2026-05-04 13:35 43.39414 7.30744 5942 ft 289 kts 342°
2026-05-04 13:36 43.41134 7.29387 6175 ft 286 kts 324°
2026-05-04 13:36 43.42717 7.27760 6406 ft 284 kts 324°
2026-05-04 13:36 43.44299 7.26145 6638 ft 285 kts 324°
2026-05-04 13:36 43.45887 7.24526 6864 ft 285 kts 323°
2026-05-04 13:37 43.47479 7.22900 7090 ft 287 kts 323°
2026-05-04 13:37 43.49077 7.21267 7312 ft 288 kts 323°
2026-05-04 13:37 43.50692 7.19616 7547 ft 289 kts 323°
2026-05-04 13:37 43.51761 7.18522 7696 ft 290 kts 323°
2026-05-04 13:38 43.53917 7.16316 8003 ft 291 kts 323°
2026-05-04 13:38 43.55536 7.14657 8232 ft 292 kts 323°
2026-05-04 13:38 43.57162 7.12990 8463 ft 293 kts 322°
2026-05-04 13:38 43.58792 7.11319 8692 ft 294 kts 322°
2026-05-04 13:39 43.60117 7.09959 8878 ft 294 kts 322°